Fairbanks, AK

3:19 AM AKST on November 17, 2019 (GMT -0900)
Fairbanks International

Weather History for PAFA - October, 2019

Change the Weather History Date:

Sunday, October 13, 2019

  Actual Average Record
Temperature  
Mean Temperature 27 °F 27 °F  
Max Temperature 30 °F 35 °F 65 °F (1969)
Min Temperature 23 °F 19 °F -3 °F (1913)
Degree Days  
Heating Degree Days 38 38  
Month to date heating degree days 386 431  
Since 1 July heating degree days 1194 1425  
Cooling Degree Days 0 0  
Month to date cooling degree days 0 0  
Year to date cooling degree days 123 61  
Moisture  
Dew Point 22 °F    
Average Humidity 74    
Maximum Humidity 85    
Minimum Humidity 61    
Precipitation  
Precipitation T in 0.03 in 0.27 in (1965)
Month to date precipitation 1.48 0.37  
Year to date precipitation 13.99 9.04  
Snow  
Snow T in 0.40 in 4.60 in (1965)
Month to date snowfall 1.9 3.5  
Since 1 July snowfall 1.9 5.3  
Since 1 September snowfall 1.9 5.3  
Snow Depth 0.00 in    
Sea Level Pressure  
Sea Level Pressure 30.16 in    
Wind  
Wind Speed 4 mph ()    
Max Wind Speed 10 mph    
Max Gust Speed -    
Visibility 10.0 miles    
Events Snow    
T = Trace of Precipitation, MM = Missing Value Source: Averaged Metar Reports

Daily Weather History Graph

Daily Weather History Graph

Search for Another Location

Airport or City:

Astronomy

Oct. 13, 2019 Rise Set
Actual Time 8:37 AM AKDT 6:36 PM AKDT
Civil Twilight 7:47 AM AKDT 7:25 PM AKDT
Nautical Twilight 6:51 AM AKDT 8:22 PM AKDT
Astronomical Twilight 5:52 AM AKDT 9:20 PM AKDT
Moon 7:18 PM AKDT (10/13) 7:54 AM AKDT (10/13)
Length of Visible Light 11h 38m
Length of Day
9h 58m
Full, 100% of the Moon is Illuminated
Oct 13
Full
Oct 13
Full
Oct 21
Last Quarter
Oct 27
New
Nov 4
First Quarter

Hourly Weather History & Observations

Time (AKDT) Temp. Windchill Dew Point Humidity Pressure Visibility Wind Dir Wind Speed Gust Speed Precip Events Conditions
12:53 AM 30.0 °F 26.5 °F 23.0 °F 75% 30.19 in 10.0 mi SSW 3.5 mph - N/A   Mostly Cloudy
1:53 AM 30.0 °F - 23.0 °F 75% 30.19 in 10.0 mi Calm Calm - N/A   Mostly Cloudy
2:53 AM 30.0 °F 23.2 °F 23.0 °F 75% 30.19 in 10.0 mi West 6.9 mph - N/A   Mostly Cloudy
3:53 AM 30.0 °F 25.2 °F 23.0 °F 75% 30.17 in 10.0 mi WSW 4.6 mph - N/A   Mostly Cloudy
4:53 AM 28.9 °F 21.9 °F 23.0 °F 78% 30.16 in 10.0 mi SSW 6.9 mph - N/A   Mostly Cloudy
5:53 AM 28.0 °F 20.8 °F 21.9 °F 78% 30.16 in 10.0 mi SSW 6.9 mph - N/A   Mostly Cloudy
6:53 AM 28.0 °F 24.2 °F 23.0 °F 81% 30.17 in 10.0 mi Variable 3.5 mph - N/A   Mostly Cloudy
7:53 AM 28.0 °F 24.2 °F 23.0 °F 81% 30.17 in 10.0 mi WSW 3.5 mph - 0.00 in Snow Light Freezing Drizzle
8:22 AM 28.0 °F 22.8 °F 24.1 °F 85% 30.13 in 10.0 mi SW 4.6 mph - 0.00 in Snow Light Snow
8:53 AM 28.0 °F 22.8 °F 24.1 °F 85% 30.16 in 10.0 mi SSW 4.6 mph - 0.00 in   Overcast
9:12 AM 28.0 °F 22.8 °F 24.1 °F 85% 30.13 in 10.0 mi SSW 4.6 mph - N/A   Mostly Cloudy
9:53 AM 28.0 °F - 24.1 °F 85% 30.17 in 10.0 mi Calm Calm - N/A   Mostly Cloudy
10:53 AM 28.0 °F 22.8 °F 24.1 °F 85% 30.18 in 10.0 mi SSW 4.6 mph - N/A   Overcast
11:53 AM 28.9 °F 25.2 °F 24.1 °F 82% 30.18 in 10.0 mi SSW 3.5 mph - 0.00 in Snow Light Snow
12:53 PM 30.0 °F - 23.0 °F 75% 30.19 in 10.0 mi Calm Calm - 0.00 in   Overcast
1:53 PM 30.0 °F - 23.0 °F 75% 30.19 in 10.0 mi Calm Calm - N/A   Overcast
2:53 PM 30.9 °F 26.2 °F 21.9 °F 69% 30.18 in 10.0 mi East 4.6 mph - N/A   Overcast
3:26 PM 30.0 °F 24.1 °F 21.9 °F 72% 30.15 in 10.0 mi ESE 5.8 mph - N/A   Overcast
3:53 PM 30.0 °F 24.1 °F 23.0 °F 75% 30.18 in 10.0 mi ESE 5.8 mph - 0.00 in Snow Light Snow
4:53 PM 30.0 °F 25.2 °F 21.0 °F 69% 30.17 in 10.0 mi ESE 4.6 mph - 0.00 in Snow Light Snow
5:53 PM 30.0 °F 23.2 °F 21.0 °F 69% 30.17 in 10.0 mi East 6.9 mph - 0.00 in   Mostly Cloudy
6:53 PM 30.0 °F 22.4 °F 19.9 °F 66% 30.17 in 10.0 mi East 8.1 mph - N/A   Mostly Cloudy
7:53 PM 30.0 °F 21.1 °F 19.0 °F 64% 30.16 in 10.0 mi East 10.4 mph - N/A   Mostly Cloudy
8:53 PM 30.0 °F 22.4 °F 19.9 °F 66% 30.16 in 10.0 mi East 8.1 mph - N/A   Overcast
9:53 PM 30.0 °F 21.7 °F 18.0 °F 61% 30.16 in 10.0 mi East 9.2 mph - N/A   Overcast
10:33 PM 30.0 °F 22.4 °F 18.0 °F 61% 30.12 in 10.0 mi East 8.1 mph - N/A   Overcast
10:53 PM 28.9 °F 21.9 °F 18.0 °F 64% 30.15 in 10.0 mi ENE 6.9 mph - N/A   Mostly Cloudy
11:53 PM 24.8 °F 17.9 °F 17.6 °F 74% 30.11 in 10.0 mi ENE 5.8 mph - N/A   Partly Cloudy